[[{"header":{"parameterUnit":"m.s-1","parameterCategory":2,"la1":30.2991,"la2":30.254,"lo1":-89.0895,"lo2":-89.0444,"dy":0.0017,"dx":0.0017,"nx":28,"ny":28,"refTime":"2024-07-30T03:00:00:Z","depth":"0","parameterNumber":2,"parameterNumberName":"U-component_of_CURRENTS"},"data":[0,0,0,0,0,0,0,0,0,0,0,0,0,0,0,0,0,0,0,0,0,0,0,0,0,0,0,0,0,0,0,0,0,0,0,0,0,0,0,0,0,0,0,0,0,0,0,0,0,0,0,0,0,0,0,0,0,0,0.2959,0.296,0,0.3027,0.3028,0.3028,0.3191,0.3194,0.3197,0.32,0.3254,0.3252,0.325,0,0,0,0,0,0,0,0,0,0,0,0,0,0.2882,0.2883,0.2959,0.296,0.2961,0.3027,0.3028,0.3029,0.319,0.3194,0.3198,0.3202,0.3254,0.3252,0.325,0,0,0,0,0,0,0,0,0,0,0,0,0,0.2929,0.2884,0.2959,0.3049,0.3058,0.3026,0.3028,0.3029,0.3189,0.3194,0.3199,0.3204,0.3255,0.3253,0.325,0.3133,0,0,0.3242,0.3241,0,0,0,0,0,0,0,0,0.2927,0.2932,0.3035,0.3043,0.3053,0.3105,0.302,0.3063,0.3188,0.3139,0.3201,0.3206,0.3199,0.3201,0.3203,0.3136,0.3138,0.3242,0.324,0.3239,0.3239,0,0,0,0,0,0,0,0.2923,0.293,0.2986,0.3035,0.3046,0.3056,0.3069,0.3029,0.314,0.3144,0.3156,0.3161,0.3204,0.3205,0.3206,0.3139,0.3242,0.324,0.3238,0.3237,0.3266,0.3268,0,0,0,0,0,0,0.2913,0.2927,0.2984,0.2988,0.3,0.3054,0.3068,0.3083,0.3141,0.3155,0.3157,0.3169,0.3207,0.3209,0.3208,0.329,0.3239,0.3237,0.3235,0.3264,0.3266,0.3269,0,0,0,0,0,0,0.2911,0.2918,0.2981,0.2958,0.2968,0.305,0.3065,0.3082,0.3115,0.3151,0.3166,0.3177,0.3211,0.3212,0.3234,0.3286,0.3236,0.3233,0.3261,0.3264,0.3268,0.3314,0,0,0,0,0,0,0.2909,0.2917,0.2913,0.2958,0.2968,0.3008,0.3061,0.308,0.3108,0.3125,0.317,0.318,0.3215,0.3238,0.3231,0.3281,0.3231,0.3258,0.3262,0.3267,0.331,0.3319,0.3327,0,0,0,0,0,0.2906,0.2912,0.2912,0.2919,0.2964,0.3008,0.3016,0.309,0.3104,0.3133,0.3172,0.3181,0.3264,0.3235,0.3228,0.3278,0.3256,0.3261,0.3266,0.3306,0.3317,0.3326,0,0,0,0,0,0,0.2876,0.2929,0.2932,0.2951,0.2985,0.3038,0.3061,0.3077,0.312,0.3137,0.3168,0.318,0.3246,0.3231,0.32,0.3307,0.3275,0.3278,0.3308,0.3318,0.3326,0.3314,0.3229,0,0,0,0,0,0.2855,0.2881,0.292,0.2932,0.2953,0.2988,0.3005,0.3048,0.309,0.3116,0.3143,0.3185,0.3247,0.3258,0.3303,0.3295,0.3282,0.3339,0.3348,0.3355,0.3345,0.3406,0.3419,0.3286,0.3286,0.3286,0,0,0.2842,0.2872,0.2885,0.2926,0.2958,0.3007,0.3016,0.3055,0.3108,0.3103,0.3173,0.3207,0.3258,0.3323,0.3347,0.3316,0.3376,0.3361,0.3367,0.3352,0.3413,0.3425,0.3437,0.3289,0.3289,0.3288,0,0,0.2841,0.2861,0.2884,0.2926,0.297,0.3009,0.3018,0.3066,0.3113,0.3143,0.3205,0.3254,0.3289,0.3366,0.3403,0.3457,0.3436,0.3483,0.3487,0.3548,0.3559,0.3569,0.3519,0.3523,0.3467,0.3467,0.3467,0,0.2821,0.2861,0.2894,0.2938,0.2983,0.3016,0.3063,0.3108,0.3156,0.3175,0.3188,0.3289,0.3326,0.3428,0.3478,0.3477,0.3467,0.3443,0.3557,0.3567,0.3576,0.3523,0.3528,0.347,0.347,0.3469,0.3469,0,0.2841,0.2886,0.2913,0.2992,0.3037,0.3088,0.3158,0.3193,0.3223,0.325,0.3332,0.3379,0.3438,0.3477,0.349,0.3586,0.354,0.3576,0.3525,0.3592,0.3531,0.3535,0.3474,0.3473,0.3472,0.3471,0,0,0.2786,0.2904,0.2915,0.2972,0.3075,0.3121,0.3206,0.328,0.332,0.3364,0.3415,0.3522,0.3511,0.3552,0.3583,0.3621,0.3663,0.3612,0.3614,0.3546,0.3716,0.3445,0.3422,0.3726,0.3729,0.3731,0.3629,0,0.2798,0.2887,0.2947,0.3059,0.3125,0.32,0.3275,0.334,0.3385,0.3437,0.3488,0.3549,0.3558,0.3576,0.3628,0.3686,0.3684,0.3681,0.3675,0.3672,0.3413,0.3423,0.3247,0.3122,0.3633,0.3633,0.3634,0,0.2797,0.2872,0.2964,0.3109,0.3141,0.3207,0.3322,0.3392,0.3469,0.3488,0.3538,0.3569,0.3645,0.3639,0.3722,0.372,0.3707,0.372,0.3718,0.345,0.3409,0.3151,0.311,0.307,0.3639,0.3639,0.3638,0,0.275,0.289,0.2967,0.3021,0.3174,0.3223,0.3302,0.3388,0.3424,0.351,0.3509,0.3613,0.3627,0.3702,0.3672,0.373,0.3701,0.3799,0.3519,0.3497,0.3332,0.3289,0.3237,0.3823,0.3823,0.3823,0.3823,0,0.2754,0.2826,0.295,0.3006,0.3094,0.3203,0.3271,0.335,0.3415,0.3435,0.3521,0.3524,0.3646,0.3627,0.3662,0.3534,0.3687,0.3488,0.3462,0.3332,0.3294,0.3238,0.3238,0.3819,0.382,0.3821,0.3822,0,0.2714,0.2786,0.2892,0.3039,0.3076,0.3142,0.3242,0.3276,0.3342,0.3371,0.3387,0.3448,0.3411,0.3421,0.3473,0.3442,0.3278,0.3307,0.3062,0.3006,0.2745,0.2752,0.2478,0.2434,0.3053,0.3046,0.3039,0,0.2711,0.2754,0.2894,0.2939,0.3011,0.3097,0.3135,0.3224,0.3238,0.3302,0.3294,0.3252,0.3176,0.3067,0.2995,0.2904,0.2924,0.2679,0.2774,0.2653,0.265,0.2583,0.2569,0.2573,0.2563,0.2556,0.255,0,0.2731,0.2761,0.2853,0.291,0.2963,0.3002,0.306,0.3037,0.3114,0.31,0.3032,0.298,0.2825,0.2624,0.2448,0.2422,0.2526,0.2512,0.2522,0.2337,0.2135,0.2104,0.2654,0.2481,0.2488,0.2493,0.2497,0.2499,0.2742,0.278,0.285,0.2884,0.2924,0.2878,0.2823,0.2835,0.2776,0.2673,0.2739,0.2555,0.2405,0.2134,0.206,0.1837,0.1965,0.1845,0.1879,0.1834,0.173,0.2024,0.1738,0.174,0.1742,0.1744,0.1746,0,0.2741,0.2759,0.2813,0.2811,0.2761,0.2803,0.2739,0.2616,0.2444,0.238,0.2246,0.1987,0.1758,0.1647,0.1407,0.1292,0.1315,0.1257,0.1249,0.1294,0.168,0.1602,0.1109,0.111,0.111,0.111,0.111,0.111,0.2751,0.2755,0.2739,0.2619,0.2595,0.2432,0.2333,0.2164,0.2054,0.1752,0.1548,0.1476,0.1395,0.1155,0.0981,0.095,0.0967,0.075,0.0891,0.1296,0.136,0.1421,0.1353,0.0816,0.0816,0.0461,0.0459,0.0457]},{"header":{"parameterUnit":"m.s-1","parameterCategory":2,"la1":30.2991,"la2":30.254,"lo1":-89.0895,"lo2":-89.0444,"dy":0.0017,"dx":0.0017,"nx":28,"ny":28,"refTime":"2024-07-30T03:00:00:Z","depth":"0","parameterNumber":3,"parameterNumberName":"V-component_of_CURRENTS"},"data":[0,0,0,0,0,0,0,0,0,0,0,0,0,0,0,0,0,0,0,0,0,0,0,0,0,0,0,0,0,0,0,0,0,0,0,0,0,0,0,0,0,0,0,0,0,0,0,0,0,0,0,0,0,0,0,0,0,0,0.039,0.039,0,0.0424,0.0425,0.0425,0.0448,0.0448,0.0448,0.0448,0.0454,0.0454,0.0454,0,0,0,0,0,0,0,0,0,0,0,0,0,0.0356,0.0357,0.039,0.039,0.039,0.0424,0.0425,0.0425,0.0448,0.0448,0.0448,0.0448,0.0454,0.0454,0.0454,0,0,0,0,0,0,0,0,0,0,0,0,0,0.038,0.0357,0.039,0.0404,0.0406,0.0424,0.0425,0.0426,0.0448,0.0448,0.0448,0.0448,0.0453,0.0454,0.0454,0.0456,0,0,0.0455,0.0455,0,0,0,0,0,0,0,0,0.0379,0.0382,0.0402,0.0403,0.0405,0.043,0.0415,0.0434,0.0448,0.0434,0.0448,0.0448,0.0442,0.0443,0.0453,0.0456,0.0457,0.0455,0.0455,0.0455,0.0455,0,0,0,0,0,0,0,0.0377,0.0381,0.0406,0.0402,0.0404,0.0413,0.0417,0.0419,0.0439,0.0436,0.0437,0.0437,0.0443,0.0453,0.0453,0.0457,0.0455,0.0455,0.0455,0.0455,0.0553,0.0555,0,0,0,0,0,0,0.0369,0.0379,0.0404,0.0406,0.0389,0.0413,0.0418,0.0424,0.044,0.0442,0.0437,0.0438,0.0452,0.0453,0.0453,0.0522,0.0455,0.0455,0.0455,0.0551,0.0554,0.0556,0,0,0,0,0,0,0.0368,0.0371,0.0403,0.0391,0.0396,0.0414,0.0421,0.0424,0.0438,0.0441,0.0443,0.0447,0.0452,0.0453,0.0486,0.052,0.0455,0.0456,0.0548,0.0551,0.0555,0.0617,0,0,0,0,0,0,0.0367,0.037,0.0375,0.0391,0.0396,0.0425,0.0421,0.0425,0.0437,0.0439,0.045,0.045,0.0452,0.0486,0.0486,0.0519,0.0456,0.0545,0.0549,0.0554,0.0612,0.0623,0.0632,0,0,0,0,0,0.0366,0.0383,0.0375,0.0378,0.0401,0.0426,0.043,0.0443,0.0437,0.0453,0.0473,0.045,0.0516,0.0488,0.0488,0.0521,0.0542,0.0548,0.0553,0.0608,0.0621,0.0631,0,0,0,0,0,0,0.0376,0.0387,0.0379,0.0398,0.041,0.0429,0.0448,0.0445,0.0472,0.0476,0.0474,0.0477,0.0522,0.0516,0.0485,0.0567,0.0528,0.0533,0.0569,0.0581,0.0591,0.0615,0.0456,0,0,0,0,0,0.0375,0.0392,0.0397,0.0415,0.0422,0.043,0.044,0.0447,0.0468,0.048,0.0486,0.0508,0.0545,0.0556,0.058,0.0613,0.0607,0.0639,0.0649,0.0657,0.068,0.0734,0.075,0.0574,0.0574,0.0574,0,0,0.0385,0.0393,0.0402,0.0418,0.0431,0.046,0.0439,0.0462,0.0496,0.0475,0.0526,0.0536,0.0563,0.0616,0.0635,0.0613,0.0693,0.0664,0.067,0.069,0.0741,0.0758,0.0773,0.0578,0.0577,0.0577,0,0,0.0423,0.0419,0.0447,0.046,0.0475,0.0484,0.0489,0.0506,0.0525,0.0563,0.0575,0.0614,0.064,0.0686,0.0708,0.0785,0.0745,0.0782,0.0847,0.0898,0.0913,0.0926,0.0887,0.0896,0.0785,0.0785,0.0785,0,0.043,0.0465,0.046,0.0492,0.0514,0.0498,0.0539,0.0558,0.0585,0.0621,0.0589,0.0684,0.0686,0.0789,0.0817,0.0807,0.0798,0.0794,0.091,0.0923,0.0936,0.0893,0.0902,0.0789,0.0788,0.0788,0.0787,0,0.0491,0.0517,0.0539,0.0574,0.0597,0.0629,0.0648,0.0679,0.0684,0.0705,0.0787,0.0801,0.0865,0.0866,0.0861,0.0962,0.091,0.0914,0.0875,0.0957,0.0906,0.0914,0.0794,0.0792,0.0791,0.079,0,0,0.0512,0.0569,0.0576,0.0611,0.0643,0.0674,0.0738,0.0802,0.0866,0.0874,0.0968,0.1012,0.1011,0.1039,0.1037,0.1071,0.1116,0.1028,0.1029,0.0978,0.1167,0.11,0.1102,0.114,0.1144,0.1146,0.1075,0,0.056,0.0635,0.0655,0.0736,0.0776,0.0799,0.0869,0.0925,0.0961,0.1042,0.1068,0.1142,0.108,0.1115,0.1145,0.115,0.1151,0.1131,0.1105,0.1103,0.1029,0.1117,0.1084,0.1018,0.1083,0.1084,0.1085,0,0.061,0.0657,0.0738,0.0831,0.0855,0.0904,0.1021,0.1082,0.1184,0.1215,0.1281,0.1295,0.1363,0.1291,0.1316,0.1305,0.1241,0.1212,0.1209,0.1143,0.1058,0.096,0.1031,0.1046,0.1098,0.1097,0.1096,0,0.0629,0.0718,0.0788,0.0815,0.0912,0.0974,0.1035,0.1138,0.1218,0.1329,0.1392,0.1455,0.1493,0.1471,0.1385,0.1367,0.1381,0.1349,0.1212,0.1201,0.117,0.1153,0.1253,0.1357,0.1357,0.1357,0.1357,0,0.0671,0.0729,0.0804,0.0844,0.0958,0.1012,0.1144,0.1216,0.1338,0.1451,0.148,0.1563,0.1546,0.1541,0.1447,0.1354,0.1424,0.1244,0.1212,0.1182,0.1169,0.1175,0.1178,0.1354,0.1355,0.1355,0.1356,0,0.0688,0.0729,0.0819,0.0926,0.0966,0.1051,0.1201,0.1303,0.1397,0.1547,0.1589,0.1663,0.1643,0.1572,0.1521,0.1426,0.1337,0.1278,0.1195,0.1157,0.1053,0.1059,0.1101,0.1123,0.114,0.1139,0.1138,0,0.0709,0.0751,0.0869,0.0934,0.0987,0.1109,0.1206,0.1323,0.1429,0.16,0.1679,0.1706,0.1721,0.1599,0.1435,0.1261,0.1261,0.1128,0.1108,0.1072,0.1056,0.1063,0.1081,0.1051,0.1049,0.1048,0.1046,0,0.076,0.0793,0.0872,0.0987,0.1088,0.1208,0.1345,0.1429,0.1577,0.168,0.179,0.1814,0.1688,0.1526,0.1302,0.1183,0.1159,0.1088,0.1119,0.1066,0.1019,0.1015,0.1006,0.1032,0.1034,0.1035,0.1036,0.1036,0.0801,0.086,0.095,0.106,0.1173,0.1294,0.1379,0.1503,0.1638,0.1755,0.1796,0.1788,0.1629,0.1314,0.1191,0.0985,0.1015,0.0932,0.095,0.0966,0.0995,0.0914,0.0874,0.0875,0.0875,0.0875,0.0876,0,0.0854,0.0917,0.1023,0.1149,0.1254,0.131,0.1467,0.1528,0.1636,0.1706,0.1738,0.1626,0.1427,0.1248,0.0981,0.0889,0.0882,0.0864,0.0905,0.0938,0.092,0.0927,0.0819,0.0819,0.0819,0.0819,0.0819,0.0819,0.0889,0.0982,0.1024,0.1184,0.1272,0.1385,0.1455,0.1525,0.1581,0.1586,0.1545,0.1519,0.1466,0.1126,0.0948,0.0897,0.0934,0.0858,0.0923,0.0933,0.0942,0.0951,0.0963,0.0864,0.0864,0.0945,0.0946,0.0946]}],[{"header":{"parameterUnit":"m.s-1","parameterCategory":2,"la1":30.2991,"la2":30.254,"lo1":-89.0895,"lo2":-89.0444,"dy":0.0017,"dx":0.0017,"nx":28,"ny":28,"refTime":"2024-07-30T03:00:00:Z","depth":"2","parameterNumber":2,"parameterNumberName":"U-component_of_CURRENTS"},"data":[0,0,0,0,0,0,0,0,0,0,0,0,0,0,0,0,0,0,0,0,0,0,0,0,0,0,0,0,0,0,0,0,0,0,0,0,0,0,0,0,0,0,0,0,0,0,0,0,0,0,0,0,0,0,0,0,0,0,0.2107,0.2107,0,0.2105,0.2105,0.2105,0.2123,0.2124,0.2124,0.2125,0.2181,0.2182,0.2183,0,0,0,0,0,0,0,0,0,0,0,0,0,0.2174,0.2172,0.2107,0.2107,0.2107,0.2105,0.2105,0.2105,0.2123,0.2124,0.2124,0.2125,0.218,0.2181,0.2183,0,0,0,0,0,0,0,0,0,0,0,0,0,0.2156,0.2172,0.2107,0.2115,0.2116,0.2105,0.2105,0.2105,0.2123,0.2124,0.2125,0.2125,0.218,0.2181,0.2183,0.218,0,0,0.2188,0.2189,0,0,0,0,0,0,0,0,0.2157,0.2154,0.2114,0.2115,0.2115,0.2114,0.2149,0.2133,0.2123,0.2121,0.2125,0.2125,0.2163,0.2166,0.2164,0.2183,0.2185,0.2188,0.2189,0.219,0.219,0,0,0,0,0,0,0,0.2158,0.2154,0.2107,0.2114,0.2115,0.2135,0.2133,0.2146,0.214,0.2122,0.2123,0.2121,0.2164,0.2163,0.2166,0.2186,0.2188,0.2189,0.219,0.2191,0.2316,0.2319,0,0,0,0,0,0,0.2153,0.2155,0.2107,0.2107,0.2137,0.2133,0.2131,0.2115,0.2139,0.2142,0.212,0.2122,0.216,0.2164,0.2168,0.229,0.219,0.2191,0.2192,0.2314,0.2317,0.2319,0,0,0,0,0,0,0.2154,0.2148,0.2107,0.2132,0.2128,0.2131,0.2113,0.2114,0.2146,0.2137,0.2142,0.2154,0.216,0.2166,0.2195,0.2287,0.2192,0.2194,0.2311,0.2315,0.2318,0.2454,0,0,0,0,0,0,0.2156,0.2148,0.2144,0.213,0.2126,0.2147,0.2112,0.2114,0.2141,0.2144,0.2167,0.217,0.2161,0.2193,0.2197,0.2288,0.2195,0.2308,0.2313,0.2317,0.2446,0.2462,0.2475,0,0,0,0,0,0.2158,0.2148,0.2143,0.2138,0.2116,0.2149,0.2151,0.2155,0.2142,0.218,0.2168,0.2171,0.2226,0.2195,0.22,0.2293,0.2306,0.2312,0.2317,0.244,0.2459,0.2474,0,0,0,0,0,0,0.2164,0.2148,0.2143,0.2125,0.2157,0.2153,0.2175,0.2175,0.2194,0.2191,0.2181,0.2185,0.2262,0.2241,0.2208,0.2341,0.2276,0.2282,0.2368,0.2385,0.2399,0.2395,0.2196,0,0,0,0,0,0.2163,0.2164,0.2163,0.216,0.2175,0.2181,0.2194,0.2201,0.2208,0.2218,0.2228,0.2241,0.2282,0.23,0.2327,0.2377,0.2338,0.2445,0.2459,0.2471,0.247,0.2511,0.2529,0.2337,0.2337,0.2337,0,0,0.2163,0.2157,0.2156,0.2165,0.2183,0.2205,0.2193,0.2228,0.2249,0.222,0.2259,0.2296,0.2307,0.2379,0.2413,0.2374,0.2495,0.2478,0.2489,0.248,0.2518,0.2537,0.2554,0.234,0.234,0.2339,0,0,0.217,0.2168,0.2173,0.2217,0.225,0.2244,0.2265,0.2285,0.2307,0.2352,0.2346,0.2432,0.2463,0.2507,0.2528,0.2631,0.2577,0.2645,0.2709,0.275,0.2766,0.278,0.2708,0.2714,0.2644,0.2644,0.2644,0,0.2173,0.2167,0.2189,0.2227,0.2243,0.2266,0.2283,0.2317,0.2345,0.2374,0.2388,0.25,0.2539,0.2625,0.2674,0.2674,0.2625,0.2648,0.277,0.2783,0.2795,0.2717,0.2723,0.2651,0.265,0.265,0.2649,0,0.2194,0.2206,0.2228,0.2261,0.2289,0.2323,0.2356,0.2394,0.2422,0.2468,0.2587,0.2648,0.2715,0.277,0.2758,0.2872,0.2782,0.2792,0.2728,0.2822,0.2734,0.2737,0.2662,0.2659,0.2657,0.2655,0,0,0.215,0.2217,0.223,0.2261,0.2307,0.2338,0.237,0.2418,0.247,0.2569,0.2644,0.2792,0.2854,0.2879,0.2908,0.296,0.3023,0.2909,0.2908,0.2835,0.3012,0.2803,0.2785,0.3044,0.3047,0.3049,0.2898,0,0.2155,0.2198,0.2226,0.2285,0.2303,0.235,0.2433,0.2498,0.252,0.2613,0.2735,0.2836,0.2883,0.2937,0.3012,0.3026,0.3043,0.3056,0.2931,0.2925,0.2731,0.2789,0.2615,0.2455,0.2901,0.2901,0.2901,0,0.2157,0.218,0.2205,0.2323,0.235,0.24,0.2469,0.2531,0.2651,0.2718,0.2806,0.2863,0.2982,0.3009,0.3081,0.3073,0.3052,0.3053,0.3047,0.2809,0.2725,0.2442,0.2442,0.2906,0.2905,0.2905,0.2905,0,0.2104,0.2177,0.2181,0.2221,0.2351,0.2391,0.2458,0.2562,0.2621,0.272,0.277,0.2915,0.2983,0.3023,0.3026,0.305,0.3046,0.3079,0.2851,0.2831,0.2635,0.2594,0.3111,0.3111,0.3111,0.3112,0.3112,0,0.2091,0.2121,0.2173,0.221,0.2302,0.2393,0.2481,0.2576,0.2682,0.2746,0.2821,0.2855,0.2996,0.2988,0.3,0.2902,0.3021,0.2848,0.28,0.2668,0.2633,0.3,0.2989,0.3106,0.3107,0.3108,0.3109,0,0.205,0.208,0.2132,0.2247,0.2278,0.235,0.2479,0.2542,0.2655,0.2682,0.2713,0.2821,0.2801,0.2832,0.2867,0.2831,0.2781,0.2705,0.2475,0.2402,0.2532,0.253,0.2443,0.2435,0.2428,0.2422,0.2417,0,0.2033,0.204,0.2131,0.2169,0.2215,0.2302,0.238,0.2518,0.2521,0.2623,0.2626,0.2629,0.2574,0.2512,0.2472,0.2372,0.2538,0.2138,0.2193,0.2512,0.2475,0.2484,0.2491,0.1964,0.1956,0.195,0.1944,0,0.1997,0.2031,0.2074,0.2133,0.2187,0.224,0.2305,0.2311,0.2425,0.2427,0.2383,0.2332,0.2261,0.2094,0.1986,0.1936,0.215,0.1991,0.2423,0.2153,0.2048,0.2015,0.2041,0.1885,0.1891,0.1895,0.1898,0.1901,0.1991,0.2016,0.2055,0.2097,0.2158,0.2151,0.2128,0.2134,0.2115,0.2062,0.2111,0.1972,0.195,0.1681,0.1575,0.1515,0.1681,0.1644,0.1671,0.1705,0.1669,0.1558,0.1289,0.1291,0.1294,0.1295,0.1297,0,0.1956,0.198,0.2012,0.2045,0.2025,0.2094,0.2063,0.1971,0.1837,0.1812,0.1724,0.1499,0.1334,0.1319,0.1118,0.1056,0.1141,0.1022,0.1158,0.1214,0.1264,0.1216,0.0711,0.0709,0.0708,0.0706,0,0,0.1957,0.1939,0.1915,0.1849,0.1887,0.1796,0.1749,0.1621,0.1549,0.138,0.1283,0.1324,0.1289,0.1022,0.0943,0.0799,0.1025,0.076,0.1229,0.1448,0.1498,0.1605,0.1587,0,0,0,0,0]},{"header":{"parameterUnit":"m.s-1","parameterCategory":2,"la1":30.2991,"la2":30.254,"lo1":-89.0895,"lo2":-89.0444,"dy":0.0017,"dx":0.0017,"nx":28,"ny":28,"refTime":"2024-07-30T03:00:00:Z","depth":"2","parameterNumber":3,"parameterNumberName":"V-component_of_CURRENTS"},"data":[0,0,0,0,0,0,0,0,0,0,0,0,0,0,0,0,0,0,0,0,0,0,0,0,0,0,0,0,0,0,0,0,0,0,0,0,0,0,0,0,0,0,0,0,0,0,0,0,0,0,0,0,0,0,0,0,0,0,0.0114,0.0114,0,0.0122,0.0122,0.0122,0.0113,0.0113,0.0113,0.0112,0.0121,0.0122,0.0122,0,0,0,0,0,0,0,0,0,0,0,0,0,0.0118,0.0118,0.0114,0.0114,0.0114,0.0122,0.0122,0.0122,0.0113,0.0113,0.0113,0.0112,0.0121,0.0122,0.0122,0,0,0,0,0,0,0,0,0,0,0,0,0,0.0121,0.0118,0.0114,0.011,0.011,0.0122,0.0122,0.0122,0.0114,0.0113,0.0112,0.0112,0.0121,0.0122,0.0123,0.014,0,0,0.0125,0.0126,0,0,0,0,0,0,0,0,0.0121,0.0121,0.0111,0.0111,0.011,0.0115,0.0127,0.0128,0.0114,0.0113,0.0112,0.0112,0.0119,0.012,0.0124,0.0141,0.0141,0.0125,0.0126,0.0126,0.0127,0,0,0,0,0,0,0,0.012,0.0121,0.0118,0.0111,0.0111,0.0117,0.0117,0.0127,0.012,0.0113,0.0112,0.0112,0.0119,0.0123,0.0124,0.0141,0.0125,0.0126,0.0127,0.0127,0.019,0.0191,0,0,0,0,0,0,0.0117,0.012,0.0118,0.0118,0.0113,0.0117,0.0117,0.0115,0.012,0.012,0.0113,0.0112,0.0122,0.0123,0.0125,0.0159,0.0126,0.0127,0.0128,0.0189,0.019,0.0191,0,0,0,0,0,0,0.0117,0.0117,0.0117,0.0119,0.0119,0.0117,0.0116,0.0115,0.0124,0.0119,0.0119,0.0122,0.0122,0.0123,0.0143,0.0159,0.0128,0.0128,0.0188,0.0189,0.0191,0.022,0,0,0,0,0,0,0.0117,0.0117,0.0119,0.0119,0.0119,0.0132,0.0116,0.0116,0.0124,0.0123,0.0128,0.0127,0.0121,0.0141,0.0144,0.016,0.0129,0.0186,0.0188,0.019,0.0218,0.0223,0.0227,0,0,0,0,0,0.0117,0.0122,0.0119,0.0119,0.0121,0.0133,0.0134,0.0131,0.0125,0.0136,0.0138,0.0127,0.0156,0.0143,0.0145,0.0162,0.0185,0.0188,0.019,0.0216,0.0222,0.0227,0,0,0,0,0,0,0.0125,0.0121,0.0118,0.0121,0.013,0.0131,0.0141,0.0138,0.0149,0.015,0.0142,0.0143,0.0165,0.0164,0.015,0.0188,0.0169,0.0172,0.0188,0.0193,0.0198,0.0259,0.013,0,0,0,0,0,0.0128,0.0133,0.0131,0.0138,0.0143,0.0145,0.015,0.015,0.0156,0.016,0.0161,0.0167,0.0178,0.0185,0.0193,0.0217,0.022,0.023,0.0234,0.0238,0.0291,0.0317,0.0329,0.02,0.02,0.02,0,0,0.0135,0.0133,0.0137,0.0141,0.0148,0.0158,0.0147,0.0162,0.0181,0.016,0.0188,0.0183,0.0188,0.0211,0.0221,0.0212,0.0261,0.0241,0.0244,0.0296,0.0321,0.0334,0.0345,0.0202,0.0201,0.0201,0,0,0.0156,0.015,0.0164,0.0171,0.0181,0.0178,0.0183,0.019,0.0207,0.023,0.0219,0.0246,0.0245,0.0269,0.0276,0.0319,0.0283,0.0294,0.0369,0.0392,0.0404,0.0414,0.0366,0.0372,0.0297,0.0297,0.0297,0,0.0164,0.0175,0.0172,0.0188,0.0192,0.0187,0.0202,0.0222,0.0235,0.0277,0.0245,0.0295,0.029,0.0348,0.0357,0.0335,0.0309,0.0341,0.0399,0.041,0.042,0.0369,0.0376,0.0299,0.0299,0.0299,0.0299,0,0.0198,0.0203,0.0215,0.0225,0.0231,0.0245,0.026,0.0288,0.0296,0.0329,0.0392,0.0389,0.0434,0.0413,0.0399,0.0466,0.0406,0.0396,0.0385,0.0435,0.0377,0.0383,0.0302,0.0301,0.03,0.03,0,0,0.022,0.0234,0.0239,0.0256,0.0249,0.027,0.0304,0.0359,0.0431,0.044,0.0527,0.0545,0.0566,0.0579,0.0554,0.0573,0.0588,0.0516,0.0516,0.0469,0.0577,0.0525,0.0525,0.0571,0.0573,0.0576,0.0482,0,0.0246,0.028,0.0273,0.0308,0.0323,0.033,0.0388,0.0445,0.0482,0.0568,0.0602,0.0666,0.0619,0.0638,0.0656,0.0614,0.0617,0.0611,0.0539,0.0537,0.0487,0.0538,0.0546,0.0465,0.0488,0.0489,0.0489,0,0.0278,0.0295,0.0327,0.0379,0.0395,0.0417,0.051,0.0564,0.0678,0.0729,0.0792,0.0804,0.0848,0.0795,0.0774,0.0759,0.0695,0.0647,0.0641,0.061,0.0502,0.0434,0.0475,0.0499,0.0499,0.0498,0.0497,0,0.0304,0.0335,0.0365,0.0374,0.0431,0.0473,0.0516,0.0623,0.0717,0.0826,0.0892,0.0938,0.0967,0.0913,0.082,0.0792,0.0772,0.0715,0.0604,0.0594,0.0606,0.0595,0.0728,0.0728,0.0729,0.0729,0.0729,0,0.0329,0.0359,0.0388,0.0411,0.0502,0.0525,0.0654,0.072,0.0844,0.0966,0.0982,0.1051,0.1006,0.0976,0.0864,0.0756,0.0805,0.0649,0.0599,0.0606,0.0596,0.065,0.0642,0.0725,0.0726,0.0727,0.0727,0,0.0356,0.0369,0.0419,0.0483,0.0513,0.0586,0.072,0.0835,0.0927,0.1063,0.1098,0.1157,0.1101,0.1014,0.0923,0.0822,0.0712,0.066,0.0637,0.0589,0.0488,0.0482,0.0514,0.0513,0.0511,0.051,0.0509,0,0.0371,0.0395,0.047,0.0522,0.0549,0.0657,0.0759,0.0876,0.0979,0.1111,0.1176,0.1179,0.1155,0.0996,0.0862,0.067,0.0671,0.0554,0.0537,0.0535,0.0482,0.0479,0.0476,0.0517,0.0516,0.0516,0.0515,0,0.04,0.0427,0.0475,0.0579,0.0668,0.0787,0.0905,0.0993,0.1128,0.1194,0.1246,0.1217,0.1105,0.0945,0.0746,0.0623,0.0584,0.0529,0.0581,0.0576,0.0533,0.0481,0.048,0.0508,0.0509,0.0509,0.051,0.051,0.0434,0.0478,0.0545,0.0648,0.0757,0.0884,0.097,0.1066,0.1179,0.1256,0.125,0.1189,0.1079,0.0795,0.0639,0.0504,0.0504,0.0431,0.0436,0.0441,0.0465,0.0423,0.0376,0.0376,0.0376,0.0376,0.0376,0,0.0469,0.0525,0.0615,0.0736,0.0842,0.0904,0.1058,0.1109,0.1173,0.1227,0.1217,0.1044,0.0892,0.0756,0.0547,0.0402,0.0412,0.0351,0.0404,0.0411,0.0418,0.0443,0.0347,0.0346,0.0346,0.0346,0,0,0.0498,0.0574,0.0616,0.0773,0.0866,0.0991,0.1068,0.1112,0.1155,0.1134,0.1107,0.1097,0.0924,0.0762,0.0598,0.0476,0.0472,0.0445,0.0482,0.0573,0.0581,0.0476,0.0524,0,0,0,0,0]}],[{"header":{"parameterUnit":"m.s-1","parameterCategory":2,"la1":30.2991,"la2":30.254,"lo1":-89.0895,"lo2":-89.0444,"dy":0.0017,"dx":0.0017,"nx":28,"ny":28,"refTime":"2024-07-30T03:00:00:Z","depth":"4","parameterNumber":2,"parameterNumberName":"U-component_of_CURRENTS"},"data":[0,0,0,0,0,0,0,0,0,0,0,0,0,0,0,0,0,0,0,0,0,0,0,0,0,0,0,0,0,0,0,0,0,0,0,0,0,0,0,0,0,0,0,0,0,0,0,0,0,0,0,0,0,0,0,0,0,0,0.0912,0.0912,0,0.0863,0.0862,0.0861,0.0826,0.0827,0.0827,0.0828,0.0897,0.0898,0.09,0,0,0,0,0,0,0,0,0,0,0,0,0,0.0944,0.0943,0.0912,0.0912,0.0912,0.0864,0.0862,0.0861,0.0826,0.0827,0.0827,0.0828,0.0896,0.0898,0.09,0,0,0,0,0,0,0,0,0,0,0,0,0,0.0909,0.0943,0.0912,0.0895,0.0893,0.0864,0.0862,0.086,0.0826,0.0827,0.0827,0.0828,0.0896,0.0898,0.09,0.0902,0,0,0.0907,0.0908,0,0,0,0,0,0,0,0,0.0911,0.0907,0.0897,0.0896,0.0894,0.0858,0.0899,0.0883,0.0826,0.0844,0.0828,0.0828,0.0899,0.0901,0.0878,0.0905,0.0908,0.0907,0.0908,0.0909,0.091,0,0,0,0,0,0,0,0.0914,0.0909,0.0885,0.0897,0.0895,0.0879,0.0874,0.0895,0.0865,0.0842,0.0841,0.0848,0.0898,0.0876,0.088,0.0909,0.0907,0.0909,0.091,0.0911,0.1,0.1001,0,0,0,0,0,0,0.0936,0.0911,0.0887,0.0884,0.0913,0.0879,0.0873,0.0863,0.0862,0.0864,0.0847,0.0846,0.0872,0.0878,0.0883,0.0928,0.0909,0.0911,0.0913,0.0999,0.1,0.1001,0,0,0,0,0,0,0.0936,0.0933,0.0889,0.0904,0.0898,0.0879,0.0867,0.0862,0.0868,0.0866,0.0869,0.0863,0.0873,0.088,0.0923,0.093,0.0912,0.0914,0.0998,0.0999,0.1001,0.0993,0,0,0,0,0,0,0.0937,0.0933,0.0942,0.0905,0.0898,0.0895,0.0867,0.0861,0.0873,0.0872,0.0881,0.0885,0.0874,0.092,0.0925,0.0932,0.0916,0.0996,0.0998,0.1,0.0992,0.0994,0.0996,0,0,0,0,0,0.0938,0.0937,0.0942,0.0941,0.0908,0.0897,0.0891,0.0874,0.0874,0.0881,0.0887,0.0887,0.0935,0.0922,0.0928,0.0937,0.0995,0.0998,0.1,0.0991,0.0993,0.0996,0,0,0,0,0,0,0.0954,0.0934,0.0938,0.0933,0.0934,0.0894,0.0898,0.0895,0.0899,0.0909,0.0903,0.0908,0.094,0.0953,0.0938,0.097,0.0965,0.0968,0.0956,0.0958,0.096,0.1011,0.0918,0,0,0,0,0,0.0967,0.096,0.095,0.0951,0.0952,0.0935,0.0933,0.0929,0.0926,0.0927,0.0936,0.0948,0.0947,0.0968,0.0972,0.1005,0.103,0.1015,0.1017,0.1018,0.1066,0.1128,0.1141,0.1009,0.1009,0.1009,0,0,0.0972,0.0965,0.0961,0.0956,0.0947,0.0927,0.0933,0.0941,0.0929,0.0939,0.0943,0.0958,0.0957,0.0971,0.0989,0.099,0.1053,0.1021,0.1022,0.107,0.1132,0.1145,0.1157,0.101,0.101,0.101,0,0,0.0971,0.0977,0.097,0.0963,0.0972,0.0953,0.0968,0.0959,0.0965,0.0978,0.0972,0.1014,0.1012,0.102,0.1017,0.1048,0.1055,0.1041,0.1101,0.1159,0.1171,0.1182,0.1158,0.1167,0.105,0.105,0.105,0,0.099,0.0953,0.0971,0.0957,0.094,0.0965,0.0941,0.0947,0.0958,0.0999,0.0986,0.1034,0.1031,0.1064,0.1066,0.1053,0.107,0.1081,0.1162,0.1174,0.1186,0.1159,0.117,0.105,0.105,0.105,0.105,0,0.0965,0.0939,0.0933,0.0908,0.091,0.0892,0.0903,0.0945,0.0963,0.0985,0.1055,0.1062,0.1113,0.1095,0.1085,0.1165,0.1139,0.1147,0.1155,0.1199,0.1166,0.1177,0.1049,0.1049,0.1049,0.105,0,0,0.0983,0.0923,0.0922,0.0895,0.0873,0.0875,0.0892,0.0928,0.099,0.1024,0.1094,0.1105,0.1178,0.1186,0.1192,0.1245,0.1295,0.1245,0.1248,0.1218,0.138,0.1234,0.1231,0.1327,0.1331,0.1334,0.1297,0,0.0949,0.0891,0.0876,0.0825,0.0783,0.0821,0.0838,0.0904,0.0969,0.106,0.1128,0.1187,0.1185,0.1229,0.1286,0.1296,0.1338,0.1302,0.1348,0.1349,0.1213,0.1246,0.1345,0.1305,0.1308,0.1309,0.1311,0,0.0919,0.0873,0.0811,0.0777,0.0775,0.0777,0.0861,0.0889,0.1039,0.1107,0.1226,0.1283,0.1365,0.1361,0.1434,0.1415,0.1425,0.1424,0.1423,0.1319,0.1228,0.1272,0.1331,0.1329,0.1328,0.1326,0.1325,0,0.0907,0.0832,0.0778,0.0755,0.0736,0.0775,0.0804,0.0936,0.1006,0.1176,0.1257,0.1364,0.1421,0.1475,0.1483,0.1477,0.1547,0.1521,0.1393,0.1378,0.1522,0.1512,0.1613,0.1613,0.1613,0.1613,0.1613,0,0.0848,0.0811,0.0781,0.0755,0.0756,0.0775,0.0865,0.094,0.1081,0.1178,0.1303,0.1373,0.1471,0.1516,0.1515,0.147,0.157,0.1422,0.1386,0.1505,0.1495,0.1524,0.1515,0.1611,0.1612,0.1612,0.1612,0,0.0826,0.0794,0.0731,0.072,0.0747,0.076,0.0873,0.0962,0.1091,0.1222,0.1275,0.1401,0.1438,0.1489,0.1542,0.1482,0.1464,0.1435,0.1518,0.1483,0.1236,0.1227,0.1266,0.1261,0.1257,0.1253,0.1251,0,0.0794,0.0765,0.0732,0.0725,0.0723,0.0777,0.0852,0.0971,0.1057,0.1211,0.1257,0.1349,0.1417,0.1361,0.1407,0.1375,0.1374,0.1333,0.1338,0.1254,0.1214,0.1211,0.1207,0.1244,0.1243,0.1242,0.1241,0,0.0732,0.0737,0.0701,0.0705,0.0744,0.0775,0.0872,0.0925,0.1069,0.1182,0.123,0.1247,0.1278,0.1278,0.1277,0.1257,0.1338,0.129,0.1298,0.1302,0.1227,0.1192,0.1193,0.1227,0.1229,0.123,0.1231,0,0.0715,0.0668,0.0666,0.0669,0.0713,0.0748,0.0801,0.0886,0.0974,0.1133,0.1125,0.1203,0.1273,0.1213,0.12,0.1175,0.1148,0.11,0.1118,0.1134,0.1106,0.0993,0.0907,0,0,0,0,0,0.0674,0.0644,0.0641,0.0628,0.0683,0.0714,0.0813,0.0876,0.1007,0.1018,0.1075,0.1097,0.1076,0.1091,0.1036,0.1105,0.114,0.1029,0.1093,0.1148,0.1164,0.1142,0,0,0,0,0,0,0.0641,0.0629,0.0618,0.0631,0.0633,0.0695,0.0744,0.0822,0.0834,0.0948,0.0951,0.1008,0.1012,0.1108,0.1013,0.1013,0.1021,0.1061,0.1057,0.1138,0.1153,0.1166,0.115,0,0,0,0,0]},{"header":{"parameterUnit":"m.s-1","parameterCategory":2,"la1":30.2991,"la2":30.254,"lo1":-89.0895,"lo2":-89.0444,"dy":0.0017,"dx":0.0017,"nx":28,"ny":28,"refTime":"2024-07-30T03:00:00:Z","depth":"4","parameterNumber":3,"parameterNumberName":"V-component_of_CURRENTS"},"data":[0,0,0,0,0,0,0,0,0,0,0,0,0,0,0,0,0,0,0,0,0,0,0,0,0,0,0,0,0,0,0,0,0,0,0,0,0,0,0,0,0,0,0,0,0,0,0,0,0,0,0,0,0,0,0,0,0,0,0.0079,0.0079,0,0.009,0.0091,0.0091,0.0108,0.0108,0.0109,0.0109,0.0115,0.0114,0.0114,0,0,0,0,0,0,0,0,0,0,0,0,0,0.0064,0.0064,0.0079,0.0079,0.0079,0.009,0.0091,0.0091,0.0108,0.0108,0.0109,0.0109,0.0115,0.0114,0.0114,0,0,0,0,0,0,0,0,0,0,0,0,0,0.0072,0.0064,0.0079,0.009,0.0091,0.009,0.0091,0.0091,0.0108,0.0108,0.0109,0.0109,0.0115,0.0114,0.0114,0.0101,0,0,0.0113,0.0113,0,0,0,0,0,0,0,0,0.0071,0.0072,0.0088,0.0089,0.009,0.0099,0.0088,0.0094,0.0107,0.01,0.0109,0.011,0.0109,0.0109,0.0109,0.0101,0.0101,0.0113,0.0113,0.0113,0.0113,0,0,0,0,0,0,0,0.0071,0.0072,0.0082,0.0088,0.0089,0.0092,0.0093,0.0089,0.01,0.0101,0.0102,0.0105,0.011,0.0109,0.0109,0.0102,0.0113,0.0113,0.0113,0.0113,0.0101,0.01,0,0,0,0,0,0,0.0071,0.0071,0.0082,0.0083,0.0083,0.0092,0.0093,0.0095,0.0101,0.0102,0.0104,0.0106,0.0109,0.011,0.0109,0.0113,0.0113,0.0113,0.0112,0.0101,0.0101,0.01,0,0,0,0,0,0,0.007,0.0071,0.0082,0.0078,0.008,0.0091,0.0093,0.0095,0.0101,0.0104,0.0105,0.0109,0.011,0.011,0.012,0.0113,0.0112,0.0112,0.0101,0.0101,0.01,0.0108,0,0,0,0,0,0,0.007,0.0071,0.0073,0.0078,0.008,0.0087,0.0092,0.0095,0.0102,0.0104,0.0108,0.0109,0.011,0.012,0.012,0.0112,0.0112,0.0101,0.0101,0.0101,0.0108,0.0108,0.0108,0,0,0,0,0,0.0069,0.0073,0.0073,0.0074,0.0082,0.0087,0.0088,0.0097,0.0101,0.0105,0.0114,0.0109,0.0118,0.0121,0.0119,0.0112,0.0101,0.0101,0.0101,0.0108,0.0108,0.0108,0,0,0,0,0,0,0.007,0.0075,0.0075,0.0081,0.0085,0.009,0.0096,0.0098,0.0107,0.0111,0.0114,0.0115,0.0118,0.0115,0.0118,0.0107,0.0105,0.0105,0.0111,0.0112,0.0112,0.0124,0.0112,0,0,0,0,0,0.0069,0.0072,0.0076,0.008,0.0084,0.0088,0.0092,0.0096,0.0104,0.0108,0.0116,0.0117,0.0114,0.0115,0.0114,0.0111,0.0099,0.0103,0.0103,0.0103,0.0112,0.0086,0.0085,0.0099,0.0099,0.0099,0,0,0.007,0.0074,0.0075,0.008,0.0085,0.0095,0.0092,0.0098,0.011,0.0106,0.0128,0.012,0.0114,0.0114,0.0113,0.0112,0.0091,0.0103,0.0103,0.0112,0.0086,0.0084,0.0083,0.0099,0.0099,0.0099,0,0,0.0077,0.0077,0.0085,0.0089,0.0096,0.01,0.0102,0.0111,0.0119,0.0131,0.0129,0.0118,0.0126,0.0114,0.0109,0.0107,0.0093,0.0104,0.0115,0.0089,0.0088,0.0086,0.0063,0.0059,0.0103,0.0103,0.0103,0,0.0078,0.009,0.0087,0.0099,0.0109,0.0104,0.0119,0.0123,0.0135,0.0141,0.0142,0.0133,0.0123,0.0112,0.0114,0.0106,0.0096,0.0115,0.0089,0.0088,0.0086,0.0063,0.0059,0.0103,0.0103,0.0103,0.0103,0,0.0093,0.0105,0.0111,0.0125,0.0133,0.0143,0.015,0.016,0.0165,0.0166,0.0162,0.0144,0.0139,0.0124,0.0123,0.0103,0.0101,0.0093,0.009,0.0085,0.0061,0.0056,0.0104,0.0104,0.0104,0.0104,0,0,0.0093,0.0117,0.012,0.0139,0.0149,0.0161,0.0177,0.0189,0.0204,0.0194,0.0204,0.0177,0.0161,0.0154,0.0133,0.0109,0.0081,0.0104,0.0103,0.0083,0.0031,0.0048,0.0045,0.0073,0.0073,0.0072,0.0016,0,0.0108,0.0141,0.0145,0.0179,0.0202,0.0203,0.0224,0.0231,0.0233,0.024,0.0202,0.0203,0.0173,0.0171,0.0138,0.0094,0.0073,0.0098,0.0037,0.0036,0.0053,0.0042,0.0071,0.0012,0.0011,0.0011,0.001,0,0.0123,0.0149,0.0187,0.0224,0.0233,0.0252,0.0283,0.03,0.0297,0.0296,0.0272,0.0248,0.0203,0.0188,0.01,0.0121,0.0087,0.0051,0.0047,0.0062,0.0045,0.0019,0.0002,0.0003,0.0004,0.0004,0.0005,0,0.014,0.0178,0.0214,0.0226,0.0263,0.0285,0.0308,0.0319,0.0341,0.0336,0.0338,0.0277,0.0256,0.0187,0.011,0.0108,0.0023,0.0004,-0.0013,-0.0013,-0.0015,-0.0013,-0.0036,-0.0036,-0.0036,-0.0036,-0.0035,0,0.0158,0.019,0.023,0.0251,0.0303,0.032,0.0366,0.0378,0.0394,0.0411,0.0372,0.0355,0.026,0.0198,0.0121,0.0038,0.0025,-0.0008,-0.0025,-0.0011,-0.0008,-0.0018,-0.0016,-0.0038,-0.0037,-0.0037,-0.0036,0,0.0174,0.0197,0.0242,0.029,0.0314,0.0353,0.0413,0.0442,0.0454,0.0473,0.0475,0.0414,0.033,0.0239,0.0126,0.0064,-0.0023,-0.0036,-0.0009,-0.0024,-0.0047,-0.0043,-0.0081,-0.0081,-0.0081,-0.0081,-0.0081,0,0.0186,0.0212,0.0271,0.0303,0.0329,0.0393,0.0439,0.0475,0.05,0.0496,0.0498,0.0441,0.039,0.0236,0.0134,0.0001,-0.0006,-0.0052,-0.0055,-0.0038,-0.0051,-0.0047,-0.0044,-0.0081,-0.0081,-0.0081,-0.0081,0,0.0209,0.0226,0.026,0.0326,0.038,0.0439,0.0498,0.0521,0.0553,0.0562,0.0522,0.0448,0.0366,0.0237,0.0161,0.0057,-0.0036,-0.0051,-0.0052,-0.0055,-0.0038,-0.005,-0.0047,-0.008,-0.008,-0.008,-0.008,0,0.022,0.0241,0.0282,0.0342,0.0405,0.046,0.0496,0.0528,0.0559,0.0559,0.0535,0.0448,0.0398,0.0266,0.0171,0.0095,0.0065,0.0026,0.002,0.0018,0.0067,0.0105,0.0095,0,0,0,0,0,0.0231,0.0252,0.0299,0.0356,0.0417,0.0456,0.0522,0.0551,0.058,0.0564,0.0558,0.0481,0.035,0.0277,0.0205,0.0162,0.0045,0.0072,-0.0004,-0.0077,-0.0078,-0.0036,0,0,0,0,0,0,0.0234,0.0273,0.0292,0.036,0.0398,0.0469,0.051,0.0534,0.0525,0.0536,0.0468,0.0449,0.0322,0.0393,0.0197,0.0172,0.011,0.0016,0.0014,-0.0077,-0.0078,-0.0078,-0.0035,0,0,0,0,0]}]]